Location: Davayat
(45.9471°N, 3.1105°E)
Time: 23:03:11
(UTC+00:00)

Meteor 2-12 Rocket - Pass Details

Date: 22 April 2021
Orbit: 935 x 958 km, 82.5° (Epoch: 16 May)

Event Time Altitude Azimuth Distance (km) Brightness Sun altitude
Rises 22:35:56 0° 359° (N) 3,631 8.5 -29.4°
Reaches altitude 10° 22:38:54 10° 12° (NNE) 2,678 7.5 -29.6°
Maximum altitude 22:43:56 26° 68° (ENE) 1,774 5.8 -29.9°
Enters shadow 22:44:15 26° 73° (ENE) 1,778 5.8 -29.9°
